Fua'amotu (NFTF)

Aerodrome — Elev 126
Tonga
S021.14.16.800 W175.08.13.800
Loading chart...

Current Weather

NFTF 201100Z 11004KT 9999 FEW016TCU 24/23 Q1014 RMK GRASS DEW

Published 53 minutes ago

Airport Activity

Loading chart...
Loading chart...

Standard ATC Positions

CallsignRadio Name / Freq / Voice Room / TypeFrequencyVoice RoomType
NZZO_FSS Auckland Radio
128.900
nzzo_fss
128.900nzzo_fss
NFTF_APP Fua'amotu Control
118.500
nftf_app
118.500nftf_app
NFTF_GND Fua'amotu Ground
121.900
nftf_gnd
121.900nftf_gnd
UNICOM NZZO UNICOM
122.800
unicom_nzzo
122.800unicom_nzzo

Event ATC Positions

This airport has additional control positions that are designated for use only during major events.
These non-standard positions must not be staffed unless specifically activated by the VATNZ Airspace Director as part of an official VATNZ event.
At all other times, controllers should use the designated Standard ATC Positions.

CallsignRadio Name / Freq / Voice Room / TypeFrequencyVoice RoomType
NSFA_CTR Faleolo Control
123.800
nsfa_ctr
123.800nsfa_ctr